Overview Statistics Trail Chart Weather Telemetry Raw packets
 

This is the latest recevied weather packets stored in our database for station/object KD0TNH-13. If no packets are shown the sender has not sent any weather packets the latest 10 day(s).

<< 1 2 3 4 5 >>
Time Temp. Humidity Pressure Rain* Wind** Luminosity Snow
1788569163 20° C 99% 29.2 hPa 0 mm 0.89 m/s, 202° - -
1788568863 20° C 99% 29.2 hPa 0 mm 0.89 m/s, 170° - -
1788568562 20° C 99% 29.2 hPa 0 mm 0.89 m/s, 174° - -
1788568261 20° C 99% 29.2 hPa 0 mm 0.89 m/s, 177° - -
1788567961 20° C 99% 29.2 hPa 0 mm 0.89 m/s, 177° - -
1788567660 20° C 99% 29.2 hPa 0 mm 0.45 m/s, 184° - -
1788567359 20° C 99% 29.2 hPa 0 mm 0.45 m/s, 169° - -
1788567059 20° C 99% 29.2 hPa 0 mm 0.89 m/s, 169° - -
1788566758 20° C 98% 29.2 hPa 0 mm 0.45 m/s, 163° - -
1788566458 20° C 99% 29.2 hPa 0 mm 0 m/s - -
1788566157 20° C 99% 29.2 hPa 0 mm 0.89 m/s, 179° - -
1788565856 20° C 99% 29.2 hPa 0 mm 0.45 m/s, 181° - -
1788565556 20° C 99% 29.2 hPa 0 mm 0.45 m/s, 175° - -
1788565256 20° C 10% - 0 mm 0.89 m/s, 173° - -
1788564955 20° C 99% 29.2 hPa 0 mm 1.34 m/s, 179° - -
1788564353 20° C 10% - 0 mm 0.89 m/s, 182° - -
1788564052 20° C 99% 29.2 hPa 0 mm 0.89 m/s, 178° - -
1788563752 20° C 99% 29.2 hPa 0 mm 0.45 m/s, 186° - -
1788563451 20° C 99% 29.2 hPa 0 mm 0.89 m/s, 169° - -
1788563151 20° C 98% 29.2 hPa 0 mm 1.34 m/s, 173° - -
1788562850 20° C 97% 29.2 hPa 0 mm 0.89 m/s, 166° - -
1788562550 20° C 97% 29.2 hPa 0 mm 0.89 m/s, 157° - -
1788562249 20° C 98% 29.2 hPa 0 mm 0.89 m/s, 145° - -
1788561949 20° C 98% 29.2 hPa 0 mm 0.45 m/s, 166° - -
1788561648 20° C 98% 29.2 hPa 0 mm 0.89 m/s, 192° - -

* Rain latest hour (hover to see other rain measurements)
** Current wind speed in m/s (hover to see current wind gust speed)